Location: Dover
(48.8500°N, 53.9833°W)
Time: 17:00:49
(UTC+00:00)

Cosmos 1975 Rocket - Pass Details

Date: 14 November 2025
Orbit: 598 x 626 km, 82.5° (Epoch: 12 December)

Event Time Altitude Azimuth Distance (km) Brightness Sun altitude
Rises 21:32:21 0° 347° (NNW) 2,867 6.5 -15.7°
Reaches altitude 10° 21:34:34 10° 345° (NNW) 1,962 5.7 -16.1°
Maximum altitude 21:38:52 64° 264° (W) 678 3.5 -16.8°
Drops below altitude 10° 21:43:09 10° 183° (S) 1,962 5.8 -17.5°
Sets 21:45:23 0° 181° (S) 2,867 6.6 -17.8°
